Location: Weatherford
(35.5260°N, 98.7070°W)
Time: 09:41:32
(UTC-05:00)

OPAL - Visible Passes

Search period start: 21 April 2015 00:00
Search period end: 01 May 2015 00:00
Orbit: 744 x 796 km, 100.2° (Epoch: 20 April)

Date Brightness Start Highest point End Pass type
(mag) Time Alt. Az. Time Alt. Az. Time Alt. Az.
21 Apr 7.6 21:24:46 10° NNE 21:29:57 84° WNW 21:35:10 10° SSW visible
22 Apr 7.9 20:49:42 10° NNE 20:54:35 42° E 20:59:31 10° S visible
22 Apr 10.0 22:29:20 10° NNW 22:33:13 21° WNW 22:36:58 10° WSW visible
23 Apr 8.6 21:53:10 10° N 21:58:07 46° WNW 22:03:02 10° SW visible
24 Apr 7.5 21:17:40 10° NNE 21:22:52 79° ESE 21:28:05 10° SSW visible
24 Apr 10.6 22:59:11 10° NW 23:01:11 12° WNW 23:02:54 10° W visible
25 Apr 8.2 20:42:45 10° NE 20:47:26 34° E 20:52:10 10° SSE visible
25 Apr 9.7 22:21:54 10° NNW 22:26:11 26° WNW 22:30:22 10° WSW visible
26 Apr 8.2 21:45:57 10° N 21:51:02 57° WNW 21:56:08 10° SSW visible
27 Apr 7.5 21:10:35 10° NNE 21:15:44 64° ESE 21:20:55 10° S visible
27 Apr 10.5 22:51:14 10° NNW 22:54:11 15° WNW 22:56:53 10° W visible
28 Apr 9.4 22:14:33 10° N 22:19:08 32° WNW 22:23:40 10° SW visible
29 Apr 7.8 21:38:46 10° N 21:43:57 71° WNW 21:49:09 10° SSW visible
30 Apr 7.7 21:03:33 10° NNE 21:08:37 51° ESE 21:13:42 10° S visible
30 Apr 10.2 22:43:36 10° NNW 22:47:09 18° WNW 22:50:31 10° WSW visible
